Погода в Хандагайтах

Россия / Республика Тыва     50°43′51″N   92°04′36″E
темп.,
°C
ветер,
м/с
пор.,
м/с
влажн.,
%
обл.,
%
осадки,
мм/ч
давл.,
гПа
погр.,
м
16 мая, вс
вс1601:00+7ссз11535 0.0 102110
04:00+7ссз32555 0.0 102019
07:00+10ссз22495 0.0 1020100
10:00+14ю243567 0.0 10181683
13:00+17ю362787 0.0 10142503
16:00+18ююз362592 0.0 10122391
19:00+17вюв222987 0.0 1012739
22:00+12с11455 0.0 101211
17 мая, пн
пн1701:00+11ссз334899 0.0 101223
04:00+10ссз335216 0.0 101125
07:00+12сз3447100 0.0 1011138
10:00+17з593093 0.0 10092431
13:00+18сз91231100 0.0 10082586
16:00+14ссз81153100 0.0 10101165
19:00+12ссз81559100 0.1 10121333
22:00+9ссз51267100 0.0 1014689
18 мая, вт
вт1801:00+9ссз4665100 0.0 1013130
04:00+7ссз446819 0.0 101346
07:00+10ссз34585 0.0 1012205
10:00+15зсз6939100 0.0 10091996
13:00+18сз8102799 0.0 10062742
16:00+19сз10122894 0.0 10042437
19:00+16ссз5103857 0.0 10041732
22:00+13сз5947100 0.0 1006278
19 мая, ср
ср1901:00+11сз3453100 0.1 100566
04:00+9сз3472100 0.3 100554
07:00+12зсз375234 0.3 1004883
10:00+16ю5635100 0.0 10012165
13:00+17ююз5832100 0.1 9972492
16:00+16ссз8124467 1.0 9961265
19:00+14сз51045100 1.0 9971120
22:00+11с236226 0.1 99873
20 мая, чт
чт2001:00+9ссз117076 0.1 99611
04:00+9ссв2263100 0.1 99242
07:00+4сз71192100 3.1 994558
10:00+4ссз10167180 5.3 9971012
13:00+6ссз91252100 5.4 9981223
16:00+3ссз101560100 0.2 10021365
19:00+1ссз101665100 0.3 10051375
22:00+1ссз71253100 0.0 10081497